Flag for U.S.A. Weather past 2 weeks in Pontiac, Michigan, U.S.A.

Now
43 °F

Overcast.


Feels Like: 37 °F
Forecast: 40 / 54 °F
Wind: 12 mph from North

Location: Oakland County International Airport

Current Time: Oct 22, 2014 at 10:00:01 AM

Latest Report: Oct 22, 2014 at 8:53 AM


Visibility: 10 mi

Pressure: 30.33 "Hg

Humidity: 79%

Dew point: 37 °F

Location of PontiacLocation

Historic Weather in Pontiac — Graph

°F

Pontiac temperature yesterday

Maximum temperature yesterday: 48 °F (at 12:53 AM)
Minimum temperature yesterday: 43 °F (at 4:53 PM)
Average temperature yesterday: 45 °F

Past Weeks' High & Low Weather Summary

 TemperatureHumidityPressure
High68 °F (Oct 13, 11:53 PM)97% (Oct 13, 7:53 AM)30.33 "Hg (Oct 13, 7:53 AM)
Low31 °F (Oct 19, 7:53 AM)32% (Oct 8, 4:53 PM)29.49 "Hg (Oct 17, 2:53 PM)
Average51 °F75%29.92 "Hg
* Reported Oct 7 8:53 AM — Oct 22 8:53 AM, Pontiac, Weather by CustomWeather, © 2014

Note: Actual official high and low records may vary slightly from our data, if they occured in-between our weather recording intervals... More about our weather records

Advertising

Pontiac weather history for previous 24 hours

 ConditionsComfort  
Time TempWeatherWind HumidityBarometerVisibility
8:53 AM
Oct 22
43 °FOvercast.12 mph79%30.33 "Hg10 mi
7:53 AM43 °FOvercast.14 mph79%30.31 "Hg10 mi
6:53 AM43 °FOvercast.8 mph79%30.29 "Hg10 mi
5:53 AM43 °FOvercast.9 mph79%30.27 "Hg10 mi
4:53 AM43 °FOvercast.8 mph79%30.26 "Hg10 mi
3:53 AM43 °FOvercast.9 mph79%30.24 "Hg10 mi
2:53 AM43 °FOvercast.8 mph76%30.23 "Hg10 mi
1:53 AM43 °FOvercast.8 mph76%30.23 "Hg10 mi
12:53 AM43 °FOvercast.8 mph76%30.22 "Hg10 mi
11:53 PM
Oct 21
43 °FOvercast.9 mph74%30.22 "Hg10 mi
10:53 PM43 °FOvercast.10 mph74%30.22 "Hg10 mi
9:53 PM43 °FOvercast.16 mph71%30.21 "Hg10 mi
8:53 PM43 °FOvercast.16 mph71%30.19 "Hg10 mi
7:53 PM43 °FOvercast.12 mph74%30.18 "Hg10 mi
6:53 PM43 °FOvercast.13 mph74%30.16 "Hg10 mi
5:53 PM43 °FOvercast.14 mph74%30.14 "Hg10 mi
4:53 PM43 °FPartly sunny.16 mph76%30.11 "Hg10 mi
3:53 PM44 °FMostly cloudy.16 mph73%30.09 "Hg10 mi
2:53 PM44 °FMostly cloudy.16 mph76%30.08 "Hg10 mi
1:53 PM44 °FOvercast.16 mph76%30.07 "Hg10 mi
12:53 PM45 °FMostly cloudy.15 mph76%30.05 "Hg10 mi
11:53 AM45 °FOvercast.15 mph76%30.04 "Hg10 mi
10:53 AM45 °FMostly cloudy.12 mph80%30.03 "Hg10 mi
Weather by CustomWeather, © 2014

See weather overviewHow to use our weather pages